Naples, Italy

8:21 AM CET on December 12, 2017 (GMT +0100)
Capodichino Mil

Weather History for LIRN - January, 2013

Change the Weather History Date:

Friday, January 4, 2013

  Actual Average Record
Temperature  
Mean Temperature 50 °F -  
Max Temperature 57 °F 54 °F 66 °F (1998)
Min Temperature 41 °F 39 °F 32 °F (2007)
Degree Days  
Heating Degree Days 16    
Moisture  
Dew Point 43 °F    
Average Humidity 80    
Maximum Humidity 93    
Minimum Humidity 63    
Precipitation  
Precipitation 0.00 in 0.14 in - ()
Sea Level Pressure  
Sea Level Pressure 30.38 in    
Wind  
Wind Speed 3 mph ()    
Max Wind Speed 7 mph    
Max Gust Speed -    
Visibility 4.9 miles    
Events      
Averages and records for this station are not official NWS values.
T = Trace of Precipitation, MM = Missing Value Source: Averaged Metar Reports

Daily Weather History Graph

Daily Weather History Graph

Search for Another Location

Airport or City:

Trip Planner

Search our weather history database for the weather conditions in past years. The results will help you decide how hot, cold, wet, or windy it might be!

Date:

Astronomy

Jan. 04, 2013 Rise Set
Actual Time 7:27 AM CET 4:48 PM CET
Civil Twilight 6:56 AM CET 5:19 PM CET
Nautical Twilight 6:22 AM CET 5:53 PM CET
Astronomical Twilight 5:49 AM CET 6:26 PM CET
Moon No Moon Rise 10:58 AM CET (1/4)
Length of Visible Light 10h 22m
Length of Day
9h 20m
Waning Gibbous, 58% of the Moon is Illuminated
Jan 4
Waning Gibbous
Jan 5
Last Quarter
Jan 11
New
Jan 19
First Quarter
Jan 27
Full

Hourly Weather History & Observations

Time (CET) Temp. Windchill Dew Point Humidity Pressure Visibility Wind Dir Wind Speed Gust Speed Precip Events Conditions
12:20 AM 46.4 °F 45.2 °F 41.0 °F 81% 30.48 in 5.0 mi NNW 3.5 mph - N/A   Unknown
12:50 AM 48.2 °F - 42.8 °F 82% 30.45 in 5.0 mi NW 4.6 mph - N/A   Unknown
1:20 AM 46.4 °F - 41.0 °F 81% 30.45 in 5.0 mi Variable 2.3 mph - N/A   Unknown
1:50 AM 46.4 °F 45.2 °F 41.0 °F 81% 30.45 in 5.0 mi NW 3.5 mph - N/A   Unknown
2:20 AM 44.6 °F 43.1 °F 41.0 °F 87% 30.45 in 5.0 mi NW 3.5 mph - N/A   Unknown
2:50 AM 42.8 °F - 39.2 °F 87% 30.45 in 5.0 mi North 2.3 mph - N/A   Unknown
3:20 AM 42.8 °F - 39.2 °F 87% 30.45 in 5.0 mi North 2.3 mph - N/A   Unknown
3:50 AM 44.6 °F 42.2 °F 41.0 °F 87% 30.45 in 5.0 mi NNW 4.6 mph - N/A   Unknown
4:20 AM 44.6 °F - 41.0 °F 87% 30.45 in 5.0 mi NNW 2.3 mph - N/A   Unknown
4:50 AM 44.6 °F 43.1 °F 41.0 °F 87% 30.42 in 5.0 mi North 3.5 mph - N/A   Unknown
5:20 AM 42.8 °F 41.1 °F 39.2 °F 87% 30.42 in 5.0 mi NNW 3.5 mph - N/A   Unknown
5:50 AM 42.8 °F 40.1 °F 39.2 °F 87% 30.42 in 5.0 mi NNW 4.6 mph - N/A   Unknown
6:20 AM 44.6 °F 43.1 °F 41.0 °F 87% 30.42 in 5.0 mi NNW 3.5 mph - N/A   Unknown
6:50 AM 42.8 °F 41.1 °F 39.2 °F 87% 30.42 in 5.0 mi NW 3.5 mph - N/A   Unknown
7:20 AM 42.8 °F 41.1 °F 39.2 °F 87% 30.42 in 5.0 mi NW 3.5 mph - N/A   Unknown
7:50 AM 42.8 °F - 39.2 °F 87% 30.42 in - Variable 2.3 mph - N/A   Clear
8:20 AM 44.6 °F 42.2 °F 41.0 °F 87% 30.42 in - North 4.6 mph - N/A   Clear
8:50 AM 44.6 °F 43.1 °F 41.0 °F 87% 30.42 in - NNE 3.5 mph - N/A   Clear
9:20 AM 48.2 °F - 42.8 °F 82% 30.42 in - WNW 3.5 mph - N/A   Clear
9:50 AM 50.0 °F - 42.8 °F 76% 30.42 in - Variable 2.3 mph - N/A   Clear
10:20 AM 51.8 °F - 42.8 °F 71% 30.42 in - North 3.5 mph - N/A   Clear
10:50 AM 53.6 °F - 42.8 °F 67% 30.42 in - North 4.6 mph - N/A   Clear
11:20 AM 53.6 °F - 44.6 °F 72% 30.42 in 6.2 mi NNE 6.9 mph - N/A   Scattered Clouds
11:50 AM 51.8 °F - 44.6 °F 76% 30.42 in 6.2 mi ENE 4.6 mph - N/A   Scattered Clouds
12:20 PM 55.4 °F - 44.6 °F 67% 30.39 in 6.2 mi NE 3.5 mph - N/A   Scattered Clouds
12:50 PM 55.4 °F - 44.6 °F 67% 30.36 in 6.2 mi NE 3.5 mph - N/A   Scattered Clouds
1:20 PM 57.2 °F - 44.6 °F 63% 30.36 in - NE 3.5 mph - N/A   Clear
1:50 PM 57.2 °F - 44.6 °F 63% 30.36 in - NNW 3.5 mph - N/A   Clear
2:20 PM 57.2 °F - 44.6 °F 63% 30.33 in - NW 3.5 mph - N/A   Clear
2:50 PM 57.2 °F - 44.6 °F 63% 30.33 in - NNW 3.5 mph - N/A   Clear
3:20 PM 57.2 °F - 46.4 °F 67% 30.33 in - NW 4.6 mph - N/A   Clear
3:50 PM 57.2 °F - 46.4 °F 67% 30.33 in - NW 4.6 mph - N/A   Clear
4:20 PM 55.4 °F - 46.4 °F 72% 30.33 in - NW 4.6 mph - N/A   Clear
4:50 PM 55.4 °F - 46.4 °F 72% 30.33 in - NNW 3.5 mph - N/A   Clear
5:20 PM 53.6 °F - 46.4 °F 77% 30.33 in - NNW 4.6 mph - N/A   Clear
5:50 PM 53.6 °F - 46.4 °F 77% 30.33 in - NW 4.6 mph - N/A   Clear
6:20 PM 53.6 °F - 46.4 °F 77% 30.33 in - NW 4.6 mph - N/A   Clear
6:50 PM 51.8 °F - 46.4 °F 82% 30.33 in - NNE 3.5 mph - N/A   Clear
7:20 PM 51.8 °F - 46.4 °F 82% 30.33 in - Variable 2.3 mph - N/A   Clear
7:50 PM 50.0 °F - 46.4 °F 87% 30.33 in - Calm Calm - N/A   Clear
8:20 PM 48.2 °F - 44.6 °F 87% 30.33 in - Variable 2.3 mph - N/A   Clear
8:50 PM 46.4 °F - 42.8 °F 87% 30.33 in - Variable 2.3 mph - N/A   Clear
9:20 PM 48.2 °F - 46.4 °F 93% 30.33 in - Variable 2.3 mph - N/A   Clear
9:50 PM 48.2 °F - 44.6 °F 87% 30.30 in - Calm Calm - N/A   Clear
10:20 PM 46.4 °F - 44.6 °F 93% 30.30 in 3.7 mi Variable 1.2 mph - N/A   Unknown
10:50 PM 46.4 °F - 44.6 °F 93% 30.30 in 3.7 mi Variable 2.3 mph - N/A   Unknown
11:20 PM 44.6 °F - 42.8 °F 93% 30.30 in 2.5 mi North 2.3 mph - N/A   Mist
11:50 PM 41.0 °F - 39.2 °F 93% 30.27 in 2.5 mi Variable 2.3 mph - N/A   Mist